Probability
0 0 0 0 0 0 0 0 0 0 0 0 0 0 0 0 0 0 0 0 0 0 0 0 0 0 0 0 2 4 4 3 2 1 2 2 2 2 1 0 0 0 0
0 0 0 0 0 0 0 0 0 0 0 0 0 0 0 0 0 0 0 0 0 0 0 0 0 0 0 1 2 4 5 4 2 1 1 1 1 1 0 0 0 0 0
0 0 0 0 0 0 0 0 0 0 0 0 0 0 0 0 0 0 0 0 0 0 0 0 0 0 0 1 2 3 4 4 2 0 0 0 0 0 0 0 0 0 0
0 0 0 0 0 0 0 0 0 0 0 0 0 0 0 0 0 0 0 0 0 0 0 0 0 0 0 0 1 1 1 1 1 0 0 0 0 0 0 0 0 0 0
0 0 0 0 0 0 0 0 0 0 0 0 0 0 0 0 0 0 0 0 0 0 0 0 0 0 0 0 0 0 0 0 0 0 0 0 0 0 0 0 1 0 0
0 0 0 0 0 0 0 0 0 0 0 0 0 0 0 0 0 0 0 0 0 0 0 0 0 0 0 0 0 0 0 0 0 0 0 0 0 0 0 0 0 0 0
0 0 0 0 0 0 0 0 0 0 0 0 0 0 0 0 0 0 0 0 0 0 0 0 0 0 0 0 0 0 0 0 0 0 0 0 0 0 0 0 0 0 0
0 0 0 0 0 0 0 0 0 0 0 0 0 0 0 0 0 0 0 0 0 0 0 0 0 0 0 0 0 0 0 0 0 0 0 0 0 0 0 0 0 0 0
0 0 0 0 0 0 0 0 0 0 0 0 0 0 0 0 0 0 0 0 0 0 0 0 0 0 0 0 0 0 0 0 0 0 0 0 0 0 0 0 0 0 0
0 0 0 0 0 0 0 0 0 0 0 0 0 0 0 0 0 0 0 0 0 0 0 0 0 0 0 0 0 0 0 0 0 0 0 0 0 0 0 0 0 0 0
0 0 0 0 0 0 0 0 0 0 0 0 0 0 0 0 0 0 0 0 0 0 0 0 0 0 0 0 0 0 0 0 0 0 0 0 0 0 0 0 0 0 0
0 0 0 0 0 0 0 0 0 0 0 0 0 0 0 0 0 0 0 0 0 0 0 0 0 0 0 0 0 0 0 0 0 0 0 0 0 0 0 0 0 0 0
0 0 0 1 0 0 0 0 0 0 0 0 0 0 0 0 0 0 0 0 0 0 0 0 0 0 0 0 0 0 0 0 0 0 0 0 0 0 0 0 0 0 0
0 1 1 1 0 1 1 0 0 0 0 0 0 0 0 0 0 0 0 0 0 0 0 0 0 0 0 0 0 0 0 0 0 0 0 0 0 0 0 0 0 0 0
1 1 2 1 1 3 3 1 1 1 1 1 1 1 0 0 0 0 0 0 0 0 0 0 0 0 0 0 0 0 0 0 0 0 0 0 0 0 0 0 0 0 0
0 1 2 2 2 4 5 4 3 3 3 3 2 2 1 0 0 0 0 0 0 0 0 0 0 0 0 0 0 0 0 0 0 0 0 0 0 0 0 0 0 0 0
0 0 1 1 1 3 4 6 6 7 7 6 4 3 2 0 0 0 0 0 0 0 0 0 0 0 0 0 0 0 0 0 0 0 0 0 0 0 0 0 0 0 0
0 0 0 0 0 1 3 6 9 11 11 10 9 6 3 0 0 0 0 0 0 0 0 0 0 0 0 0 0 0 0 0 0 0 0 0 0 0 0 0 0 0 0
0 0 0 0 0 1 2 4 8 11 14 15 14 11 6 3 1 1 0 0 0 0 0 0 0 0 0 0 0 0 0 0 0 0 0 0 0 0 0 0 0 0 0
0 0 0 0 0 0 1 2 4 7 11 15 18 18 14 8 5 4 2 0 0 0 0 0 0 0 0 0 0 0 0 0 0 0 0 0 0 0 0 0 0 0 0
0 0 0 0 0 0 0 0 1 3 7 12 19 24 20 13 12 11 6 2 0 0 0 0 0 0 0 0 0 0 0 0 0 0 0 0 0 0 0 0 0 0 0
0 0 0 0 0 0 0 0 0 2 4 8 15 21 20 18 18 18 13 6 2 0 0 0 0 0 0 0 0 0 0 0 0 0 0 0 0 0 0 0 0 0 0
0 0 0 0 0 0 0 0 0 1 3 5 7 10 14 18 20 20 17 11 3 0 0 0 0 0 0 0 0 0 0 0 0 0 0 0 0 0 0 0 0 0 0
0 0 0 0 0 0 0 0 0 0 1 2 2 3 6 11 15 17 16 11 5 1 0 0 0 0 0 0 0 0 0 0 0 0 0 0 0 0 0 0 0 0 0
0 0 0 0 0 0 0 0 0 0 0 0 0 1 2 4 8 11 11 9 4 1 0 0 0 0 0 0 0 0 0 0 0 0 0 0 0 0 0 0 0 0 0
0 0 0 0 0 0 0 0 0 0 0 0 0 1 2 3 4 6 7 7 5 1 0 0 0 0 0 0 0 0 0 0 0 0 0 0 0 0 0 0 0 0 0
Wind_Speed
4 5 10 10 10 10 10 10 10 10 11 11 12 12 12 11 11 10 9 8 7 7 7 7 7 7 8 8 8 9 10 10 10 11 11 11 11 11 10 10 9 6 10
7 6 11 11 10 10 10 9 9 9 10 10 10 11 11 11 10 10 9 8 8 7 7 7 7 8 8 8 8 9 10 10 10 10 10 10 11 11 10 10 9 6 9
9 7 9 12 11 11 10 9 9 9 9 9 9 9 9 9 9 9 9 8 8 7 7 7 7 7 8 8 8 8 9 9 9 9 8 4 6 10 10 10 9 9 8
10 7 8 12 11 11 10 9 9 8 8 9 8 8 8 8 8 8 8 7 7 7 7 6 6 7 7 7 7 8 8 7 8 8 4 3 4 9 9 9 9 9 8
8 7 8 13 12 11 10 9 9 8 8 8 8 8 7 7 7 7 7 6 6 6 6 6 6 6 6 6 6 7 7 7 8 6 4 3 3 7 8 8 8 8 8
7 6 8 13 12 11 10 9 9 8 8 8 7 7 7 6 6 6 6 6 6 6 6 5 5 5 6 6 6 6 6 7 6 4 3 2 2 6 8 7 7 7 7
8 6 7 14 13 12 11 10 9 8 8 8 7 7 6 6 6 6 5 5 5 5 5 5 4 4 4 5 5 5 6 6 4 3 2 1 1 5 7 7 6 6 6
9 8 7 14 14 13 12 11 10 10 9 8 8 7 6 6 5 5 4 4 4 4 4 4 4 4 4 4 5 5 5 4 4 3 2 1 1 4 5 6 5 6 6
7 7 6 7 10 13 13 12 12 11 10 9 8 7 7 6 6 5 4 3 3 2 3 3 3 4 4 4 4 4 4 5 3 1 1 0 1 3 4 5 5 5 5
5 5 5 5 6 6 7 13 13 12 11 11 10 9 8 7 6 6 5 3 2 2 1 1 2 3 3 4 4 4 4 4 2 1 0 1 1 3 4 4 5 5 5
6 5 5 5 5 5 5 9 11 12 12 11 9 11 8 3 3 3 5 5 4 3 2 1 1 1 3 5 5 4 4 1 1 1 1 2 1 2 3 4 5 5 5
9 8 6 6 6 5 6 5 4 4 5 5 4 5 3 3 3 4 4 7 6 5 4 3 2 2 4 3 3 3 1 1 1 1 2 3 2 1 2 3 3 4 4
6 6 7 6 5 5 4 3 2 2 3 4 5 5 4 3 2 2 1 3 3 3 1 2 2 2 2 1 1 1 1 0 1 1 2 4 3 2 2 2 3 3 3
3 4 5 6 6 6 5 3 3 3 3 4 5 5 4 3 3 3 2 2 2 1 1 1 1 1 0 1 1 1 1 1 1 1 2 4 3 3 3 3 3 3 2
6 5 3 4 6 6 6 4 4 5 5 5 4 5 5 4 4 4 3 3 3 2 2 2 2 2 2 2 2 3 3 3 2 1 1 3 3 3 3 3 4 4 3
9 8 6 3 3 5 6 6 5 5 5 5 5 6 7 5 5 4 4 4 3 3 3 3 3 2 2 2 3 4 4 3 3 2 1 2 3 3 3 3 4 4 4
9 9 8 6 4 3 5 7 6 5 5 6 6 7 8 7 6 5 4 4 4 4 4 3 2 2 2 2 3 3 3 4 3 3 2 2 2 3 3 3 3 3 3
10 10 9 8 7 5 4 5 5 5 6 6 6 6 9 9 8 6 5 5 4 3 3 3 2 2 2 2 2 2 2 3 4 3 2 2 2 2 2 2 2 2 3
9 9 9 9 9 8 6 5 6 5 7 6 6 6 8 9 9 7 6 6 5 4 4 4 3 3 3 3 3 2 1 2 3 3 3 4 3 2 1 2 2 2 2
8 8 8 9 8 8 6 4 3 4 5 6 7 8 8 7 9 8 6 5 4 4 4 4 3 3 3 3 2 1 1 2 2 3 4 3 3 3 3 2 1 1 2
9 8 8 9 9 7 5 4 4 3 4 5 7 8 9 8 8 7 5 4 4 4 5 5 3 4 2 2 3 1 1 1 3 3 3 3 4 4 3 3 2 1 1
9 9 8 8 9 8 6 5 4 5 5 4 5 6 9 9 9 7 7 5 4 3 3 4 3 3 2 3 3 2 1 2 2 2 2 3 4 3 4 4 3 3 2
10 10 9 9 9 8 8 6 5 4 3 3 4 5 7 9 10 9 9 7 6 5 5 5 5 5 3 2 2 3 4 4 2 2 2 2 3 3 3 3 4 4 4
10 9 8 9 9 8 8 6 7 5 5 4 3 3 4 6 7 8 9 9 8 7 7 6 6 4 4 3 1 1 1 3 2 1 2 1 2 3 3 3 4 4 4
9 8 8 8 8 8 8 7 6 5 5 4 3 3 3 2 3 5 6 7 7 7 7 6 6 5 4 3 3 2 1 1 1 2 2 2 1 2 2 3 3 3 4
8 8 7 7 8 8 8 7 6 7 6 4 3 1 1 1 1 2 4 5 5 5 7 7 7 7 5 4 4 3 3 3 3 3 3 2 2 2 2 2 3 4 4
Wind_Direction
172 172 170 155 148 141 135 128 124 122 122 122 124 126 127 128 129 131 134 138 141 143 146 143 135 131 127 119 115 109 103 99 96 92 88 90 93 95 96 96 94 92 98
149 160 164 156 152 147 143 138 134 131 127 125 126 127 128 129 129 129 129 130 132 135 137 139 136 135 127 120 113 108 105 101 97 91 85 84 90 94 96 98 99 102 103
143 152 158 157 156 154 151 148 145 139 133 129 128 128 129 128 128 128 127 126 127 127 130 133 134 130 125 119 114 107 103 103 100 97 86 65 80 91 93 95 97 101 106
145 146 154 160 160 159 159 157 152 146 139 134 131 129 128 127 125 124 123 122 122 123 124 127 127 125 120 117 112 106 103 106 108 104 80 60 74 91 91 93 95 99 103
145 143 161 163 164 166 167 165 159 156 149 144 140 135 130 126 124 122 119 117 117 117 118 121 123 123 122 119 111 105 103 108 111 101 84 65 60 94 90 87 90 99 103
147 147 167 166 170 173 175 172 169 167 161 156 150 144 138 132 128 125 121 114 111 112 113 115 121 123 123 117 106 97 94 103 103 98 91 80 68 100 96 89 87 91 99
153 158 173 172 176 179 180 178 177 177 171 167 161 157 153 145 137 130 124 115 106 103 102 103 112 119 116 107 96 89 87 106 106 104 96 80 86 103 100 95 91 85 87
163 167 176 180 181 184 185 185 185 185 181 178 173 171 169 163 153 145 136 124 110 95 88 83 85 99 99 93 89 85 79 95 108 100 97 72 122 99 96 94 96 90 84
171 174 182 183 186 189 191 192 192 193 190 188 187 188 187 184 177 171 164 151 135 108 86 73 67 75 83 85 85 87 87 95 106 100 93 36 77 91 92 94 98 100 94
182 190 193 192 188 190 196 199 198 198 197 196 196 199 201 203 200 196 188 188 189 181 137 73 57 60 68 71 72 80 86 88 114 123 95 261 124 98 93 93 99 104 101
198 205 205 203 199 196 199 208 204 204 203 201 203 206 203 205 214 210 203 209 222 228 234 250 5 35 55 46 42 59 75 83 132 171 219 254 193 122 107 100 101 105 108
207 208 208 211 208 202 208 211 208 204 201 197 192 202 187 178 202 211 220 226 231 237 248 256 272 15 58 45 23 37 48 97 175 214 248 259 247 189 141 123 112 109 113
222 218 211 212 214 209 216 212 206 203 196 195 193 193 181 178 195 209 202 245 256 256 271 325 1 44 57 41 354 349 337 220 234 249 277 278 269 253 204 173 152 137 130
282 252 235 214 211 213 216 219 208 205 203 203 199 190 181 184 195 200 203 212 219 210 216 233 241 258 265 266 272 285 286 251 229 238 284 294 284 270 244 215 195 178 166
358 336 302 240 218 214 213 220 213 212 214 211 203 199 192 194 202 204 209 210 212 204 208 222 232 240 242 238 240 237 242 235 223 230 293 299 290 282 268 236 217 203 193
7 356 346 318 251 222 217 220 221 215 213 207 208 208 201 202 203 204 214 215 216 208 207 210 226 242 251 242 247 233 224 217 216 223 251 298 294 289 293 274 244 223 209
1 358 355 349 346 286 240 230 227 219 214 212 214 209 206 205 204 206 214 221 219 204 199 202 219 232 253 244 241 223 206 205 206 215 233 263 288 287 281 284 275 250 233
0 359 357 359 354 338 299 257 240 224 215 218 214 209 209 209 206 204 212 224 215 188 185 193 197 214 237 226 214 206 194 194 209 213 225 244 253 267 288 292 292 276 254
355 352 351 351 349 339 320 283 251 233 221 219 216 210 211 209 206 204 214 220 204 189 191 204 188 186 206 209 200 191 194 203 213 216 227 235 240 244 250 292 296 283 264
347 346 346 345 342 335 324 307 280 248 229 218 216 214 205 206 205 203 213 218 206 200 201 196 194 188 194 188 181 158 218 230 217 222 230 231 236 239 234 246 285 302 278
345 346 343 343 338 338 332 326 309 280 251 229 221 216 204 200 199 197 205 205 203 215 219 200 183 186 185 141 114 91 313 259 231 231 225 227 236 233 225 227 223 231 286
339 338 336 336 331 330 321 308 287 283 270 245 229 215 205 197 189 190 188 188 187 203 219 197 176 171 168 157 145 139 228 308 271 227 224 224 231 219 224 225 217 218 224
333 334 334 328 327 326 321 311 305 293 284 268 235 220 212 200 188 187 185 178 174 178 195 194 183 178 175 176 161 152 163 214 260 288 246 232 220 211 224 222 223 221 218
321 324 324 324 325 325 323 320 316 306 294 283 273 247 225 208 195 188 180 176 174 177 185 190 180 178 165 169 181 152 151 153 158 278 305 284 247 226 226 225 226 223 216
316 319 320 322 326 327 328 328 322 311 299 294 279 249 234 215 202 193 187 180 179 180 181 179 172 178 177 175 176 162 148 118 136 163 255 302 315 266 241 230 228 226 218
319 322 324 329 329 333 337 340 340 335 330 326 321 298 244 166 152 167 174 179 181 181 180 180 177 180 183 181 183 183 176 175 184 181 207 235 263 288 280 249 235 233 221